Погода в Ильинке

Россия / Хабаровский край     48°22′06″N   135°07′07″E
темп.,
°C
ветер,
м/с
пор.,
м/с
влажн.,
%
обл.,
%
осадки,
мм/ч
давл.,
гПа
погр.,
м
9 мая, вс
вс901:00+4св41092100 0.0 1000379
04:00+4св61192100 0.0 999461
07:00+3св51092100 0.0 1000480
10:00+5св4786100 0.3 1001550
13:00+6св3892100 2.9 1001473
16:00+7ссв3888100 4.7 1002555
19:00+6св51086100 0.1 1004556
22:00+4ссв41191100 0.1 1006637
10 мая, пн
пн1001:00+4ссв41192100 0.0 1007671
04:00+4ссв41191100 0.0 1008704
07:00+3ссв4118794 0.0 1009677
10:00+6ссв596592 0.0 1010907
13:00+10ссв684872 0.0 10101332
16:00+12ссв574599 0.0 10101806
19:00+9св355886 0.0 1012895
22:00+4ссв22795 0.0 101440
11 мая, вт
вт1101:00+2с11885 0.0 101523
04:00+2с1289100 0.0 101640
07:00+4ссв257872 0.0 1017283
10:00+9ссв345648 0.0 1017873
13:00+12ссв334668 0.0 10161381
16:00+14с224358 0.0 10161810
19:00+12с2260100 0.0 101658
22:00+8юв11725 0.0 101710
12 мая, ср
ср1201:00+7ю22715 0.0 101715
04:00+5ююв22738 0.0 101622
07:00+7ююв2471100 0.0 1016127
10:00+14ююв5850100 0.0 1013957
13:00+16ю71148100 0.0 10101382
16:00+15юз51358100 0.1 10091875
19:00+11ююз61383100 1.6 10081359
22:00+9ю7148592 3.1 1007948
13 мая, чт
чт1301:00+9ю6148880 0.1 1006908
04:00+9ююз61487100 0.3 10051041
07:00+9юз51190100 0.4 1005963
10:00+9юз4986100 0.7 1006921
13:00+11юз4978100 0.1 10071010
16:00+13з6116453 0.3 10081466
19:00+14сз410604 0.1 10081183
22:00+9зюз1177100 0.1 100913